ROMMA est une association bénévole à but non lucratif. Votre soutien est indispensable : ADHERER à ROMMA ou FAIRE un DON

Voiron - (38, Isère)

Voironnais (300 m)   Longitude: 05° 35' E   Latitude: 45° 23' N Station partenaire n°109
 

Détail journalier du     <<     >>

Température Precipitation Humidité Pression Vent Dir Rafale Dir. rafale Ensol.
Heure (°C) (mm) (%) (hPa) (km/h) (km/h) (min)
01:00 10.809410211ENE6ENE0
02:00 10.509410221ENE5ESE0
03:00 10.309510221NNO5NO0
04:00 10.309510221N5N0
05:00 10.709410222N5N0
06:00 10.809310222NO6NNO0
07:00 10.6093102305NO0
08:00 9.8093102305NO0
09:00 10.209110231S6S0
10:00 12.108910243SSE8SSE60
11:00 14.907510243S15SSO60
12:00 16.106010246ESE15E60
13:00 17.305710247N21NNO60
14:00 17.2059102410NNO24N30
15:00 17.905510236N19E60
16:00 18.904910237NNO19NNO60
17:00 18.6054102311NNO24NNO60
18:00 18.0054102313NNO26N60
19:00 16.805810238N19N30
20:00 15.206410246NNE18NE0
21:00 13.907010242SSO13NNO0
22:00 12.707610242SSO11S0
23:00 12.108010241OSO6N0
minuit 11.208010242E10SO0

Graphique du 10-10-2019

 

Serveur OMMA